Location: Carnières
(50.1682°N, 3.3474°E)
Time: 13:27:35
(UTC+00:00)

deb Kosmos-841 - Visible Passes

Search period start: 03 October 2024 00:00
Search period end: 13 October 2024 00:00
Orbit: 687 x 708 km, 74.1° (Epoch: 02 October)

Date Brightness Start Highest point End Pass type
(mag) Time Alt. Az. Time Alt. Az. Time Alt. Az.
03 Oct ? 04:58:03 10° SSW 05:02:52 68° ESE 05:07:41 10° NNE visible
04 Oct ? 04:01:00 10° SSE 04:05:05 28° E 04:09:11 10° NE visible
05 Oct ? 03:06:12 10° ESE 03:07:36 11° E 03:09:00 10° ENE visible
05 Oct ? 04:42:25 10° SSW 04:47:16 78° ESE 04:52:07 10° NNE visible
06 Oct ? 03:45:07 10° SSE 03:49:23 32° ESE 03:53:39 10° NE visible
07 Oct ? 02:49:36 10° ESE 02:51:47 13° E 02:53:58 10° ENE visible
07 Oct ? 04:26:41 10° SSW 04:31:33 89° ESE 04:36:25 10° NNE visible
08 Oct ? 03:29:35 12° SSE 03:33:33 36° ESE 03:37:59 10° NE visible
08 Oct ? 05:09:40 10° WSW 05:14:06 35° WNW 05:18:34 10° N visible
09 Oct ? 02:33:28 11° SE 02:35:51 15° E 02:38:34 10° ENE visible
09 Oct ? 04:12:18 20° SSW 04:15:44 81° WNW 04:20:35 10° NNE visible
10 Oct ? 03:15:59 31° SSE 03:17:38 41° ESE 03:22:10 10° NE visible
10 Oct ? 04:54:48 14° WSW 04:58:17 31° NW 05:02:36 10° N visible
11 Oct ? 02:19:29 17° ESE 02:19:49 17° E 02:22:56 10° NE visible
11 Oct ? 03:58:19 44° SW 03:59:47 71° WNW 04:04:38 10° NNE visible
12 Oct ? 03:01:41 47° ESE 03:01:41 47° ESE 03:06:13 10° NNE visible
12 Oct ? 04:40:30 22° W 04:42:19 28° NW 04:46:31 10° N visible
